AirNav   Phillips 66 Aviation Fuel
 
 987 users online  

2J5 Millen Airport
Millen, Georgia, USA

GOING TO MILLEN?


FAA INFORMATION EFFECTIVE 12 OCTOBER 2017

Location

FAA Identifier: 2J5
Lat/Long: 32-53-34.9000N / 081-57-54.8000W
32-53.581667N / 081-57.913333W
32.8930278 / -81.9652222
(estimated)
Elevation: 240.4 ft. / 73.3 m (surveyed)
Variation: 05W (2000)
From city: 5 miles N of MILLEN, GA
Time zone: UTC -4 (UTC -5 during Standard Time)
Zip code: 30822

Airport Operations

Airport use: Open to the public
Activation date: 08/1967
Control tower: no
ARTCC: ATLANTA CENTER
FSS: MACON FLIGHT SERVICE STATION
NOTAMs facility: MCN (NOTAM-D service available)
Attendance: UNATNDD
Wind indicator: lighted
Segmented circle: yes
Lights: DUSK-2200. MIRL, REIL AND PAPI RY 17/35 OPERATES DUSK-2200; AFTER 2200 ACTVT - CTAF.
Beacon: white-green (lighted land airport)
Operates sunset to sunrise.

Airport Communications

CTAF: 122.9
AUGUSTA APPROACH: 126.8
AUGUSTA DEPARTURE: 126.8

Nearby radio navigation aids

VOR radial/distance  VOR name  Freq  Var
ALDr259/(34.6)ALLENDALE VOR116.7001W

 
NDB name  Hdg/Dist  Freq  Var  ID
MILLENat field20505WLNH .-.. -. ....
SYLVANIA312/23.824504WJYL .--- -.-- .-..
EMANUEL COUNTY067/28.130906WEEX . . -..-
EMORY181/34.238504WEMR . -- .-.

Airport Services

Fuel available: 100LL JET-A
Parking: tiedowns
Airframe service: NONE
Powerplant service: NONE
Bottled oxygen: NONE
Bulk oxygen: NONE

Runway Information

Runway 17/35

Dimensions: 5001 x 75 ft. / 1524 x 23 m
Surface: asphalt, in good condition
Weight bearing capacity: 
Single wheel: 16.5
Runway edge lights: medium intensity
RUNWAY 17  RUNWAY 35
Latitude: 32-53.983643N32-53.178385N
Longitude: 081-58.018257W081-57.807823W
Elevation: 240.3 ft.221.2 ft.
Gradient: 0.2%0.2%
Traffic pattern: rightleft
Runway heading: 173 magnetic, 168 true353 magnetic, 348 true
Markings: nonprecision, in good conditionnonprecision, in good condition
Visual slope indicator: 2-light PAPI on right (3.00 degrees glide path)2-light PAPI on left (3.00 degrees glide path)
Runway end identifier lights: yesyes
Touchdown point: yes, no lightsyes, no lights

Airport Ownership and Management from official FAA records

Ownership: Publicly-owned
Owner: JENKINS CO
JENKINS CO COURTHOUSE
MILLEN, GA 30442
Phone 478-982-2563
Manager: GRADY LANE
PO BOX 797
MILLEN, GA 30442
Phone 706-871-8432

Airport Operational Statistics

Aircraft based on the field: 5
Single engine airplanes: 5
    
Aircraft operations: avg 38/week *
50% transient general aviation
50% local general aviation
* for 12-month period ending 01 December 2015

Additional Remarks

DEER ON & INVOF ARPT.

Instrument Procedures

NOTE: All procedures below are presented as PDF files. If you need a reader for these files, you should download the free Adobe Reader.

NOT FOR NAVIGATION. Please procure official charts for flight.
FAA instrument procedures published for use between 14 September 2017 at 0901Z and 9 November 2017 at 0900Z.

 
IAPs - Instrument Approach Procedures
RNAV (GPS) RWY 17   download (206KB)
RNAV (GPS) RWY 35   download (216KB)
NDB RWY 17   download (174KB)
NOTE: Special Take-Off Minimums/Departure Procedures apply   download (286KB)

Other nearby airports with instrument procedures:

KBXG - Burke County Airport (9 nm N)
2J3 - Louisville Municipal Airport (22 nm W)
KJYL - Plantation Airpark (24 nm SE)
KSBO - East Georgia Regional Airport (27 nm SW)
KTBR - Statesboro-Bulloch County Airport (27 nm SE)
 
Loc | Ops | Rwys | IFR | FBO | Links
Com | Nav | Svcs | Stats | Notes


 
Area around 2J5 (Millen Airport)
 
Road maps at: MapQuest Bing Google
 
Aerial photo
WARNING: Photo may not be current or correct
Aerial photo of 2J5 (Millen Airport)
Photo taken 27-Sep-2016
looking north.

Do you have a better or more recent aerial photo of Millen Airport that you would like to share? If so, please send us your photo.

 
Sectional chart

 
Airport distance calculator
Flying to Millen Airport? Find the distance to fly.

From to 2J5

Sunrise and sunset
Times for 22-Oct-2017
 Local
(UTC-4)
 Zulu
(UTC)
Morning civil twilight07:1311:13
Sunrise07:3811:38
Sunset18:4622:46
Evening civil twilight19:1123:11

Current date and time
Zulu (UTC)  22-Oct-2017 21:03:30
Local (UTC-4)  22-Oct-2017 17:03:30
 
METAR
KJYL 
24nm SE 
222055Z AUTO 09007KT 10SM SCT014 BKN028 OVC095 26/23 A3018 RMK AO2 T02580229
KSBO 
27nm SW 
222035Z AUTO 10SM SCT011 SCT018 SCT023 23/21 A3018 RMK AO2
KTBR 
27nm SE 
222055Z AUTO 04006KT 10SM BKN014 OVC019 25/20 A3016 RMK AO2 T02510200
KAGS 
28nm N 
222053Z 06005KT 7SM BKN008 BKN038 OVC060 22/20 A3020 RMK AO2 RAE09 SLP224 P0000 60001 T02220200 58005
KDNL 
35nm N 
222053Z AUTO 06007KT 9SM BKN008 BKN014 OVC025 22/20 A3021 RMK AO2 RAE43 SLP226 P0001 60001 T02170200 58002
KAQX 
36nm E 
222055Z AUTO 00000KT 10SM 23/21 RMK AO2 TSNO
KBNL 
36nm NE 
222055Z AUTO 00000KT 10SM 22/21 A3021 RMK AO2 P0001
KCWV 
42nm S 
222055Z AUTO 02005KT 10SM SCT022 BKN060 OVC090 27/22 A3015 RMK AO2 T02700223
KOKZ 
44nm W 
222055Z AUTO 11006KT 10SM BKN006 BKN011 BKN016 A3018 RMK AO2
KVDI 
46nm SW 
222055Z AUTO 07008KT 10SM SCT024 BKN043 OVC070 27/21 A3014 RMK AO2
TAF
KAGS 
28nm N 
221947Z 2220/2318 13009KT P6SM VCSH SCT029 BKN045 TEMPO 2220/2224 3SM -RA BR SCT007 BKN025 OVC050 FM230000 10007KT P6SM VCSH SCT030 BKN120 FM230800 09005KT P6SM VCSH OVC015 FM231400 15008KT 4SM -SHRA BR OVC015
KDNL 
35nm N 
222026Z 2220/2318 13009KT P6SM VCSH SCT007 BKN040 OVC060 TEMPO 2220/2224 3SM -RA BR BKN007 BKN015 OVC040 FM230000 10007KT P6SM VCSH SCT030 BKN120 FM230800 09005KT P6SM VCSH OVC015 FM231400 15008KT 4SM -SHRA BR OVC015
NOTAMs
Click for the latest NOTAMs
NOTAMs are issued by the DoD/FAA and will open in a separate window not controlled by AirNav.

 

 
 

FBO, Fuel Providers, and Aircraft Ground Support

  
 Business Name 
 
 Contact 
 
 Services / Description 
 
Fuel Prices
 
Comments
  
Millen-Jenkins County Airport 478-982-2563
478-982-2626
[email]
Aviation fuel, Aircraft parking (ramp or tiedown), Hangar leasing / sales, Restrooms

More info about Millen-Jenkins County Airport
100LL Jet A
SS $3.75 $3.45 
 Updated 16-Oct-2017
 
   write
SS=Self service
Update Fuel Prices
 

Would you like to see your business listed on this page?

 If your business provides an interesting product or service to pilots, flight crews, aircraft, or users of the Millen Airport, you should consider listing it here.  To start the listing process, click on the button below
 
Add a business
 

Other Pages about Millen Airport

jcmservices.net/2j5info.htm
 
Update a link
 
Copyright © AirNav, LLC. All rights reserved. Privacy Policy  Contact